Weather History for Sussex, NJ

Change the Weather History Date:

Friday, March 8, 2013

  Actual Average Record
Temperature  
Mean Temperature 37 °F -  
Max Temperature 44 °F 43 °F 68 °F (1974)
Min Temperature 30 °F 20 °F 2 °F (1990)
Degree Days  
Heating Degree Days 28    
Moisture  
Dew Point 26 °F    
Average Humidity 77    
Maximum Humidity 86    
Minimum Humidity 53    
Precipitation  
Precipitation 0.09 in - - ()
Sea Level Pressure  
Sea Level Pressure 30.07 in    
Wind  
Wind Speed 6 mph (North)    
Max Wind Speed 13 mph    
Max Gust Speed 20 mph    
Visibility 4 miles    
Events Rain , Snow    
Averages and records for this station are not official NWS values.
T = Trace of Precipitation, MM = Missing Value Source: NWS Daily Summary

Daily Weather History Graph

Daily Weather History Graph

Search for Another Location

Airport:

Trip Planner

Search our weather history database for the weather conditions in past years. The results will help you decide how hot, cold, wet, or windy it might be!

Date:

Astronomy

Mar. 08, 2013 Rise Set
Actual Time 6:21 AM EST 5:57 PM EST
Civil Twilight 5:53 AM EST 6:25 PM EST
Nautical Twilight 5:21 AM EST 6:57 PM EST
Astronomical Twilight 4:49 AM EST 7:29 PM EST
Moon 4:05 AM EST (3/8) 2:48 PM EST (3/8)
Length of Visible Light 12h 31m
Length of Day
11h 36m
Waning Crescent, 12% of the Moon is Illuminated
Mar 8
Waning Crescent
Mar 11
New
Mar 19
First Quarter
Mar 27
Full
Apr 3
Last Quarter

Hourly Weather History & Observations

Time (EST) Temp. Windchill Dew Point Humidity Pressure Visibility Wind Dir Wind Speed Gust Speed Precip Events Conditions
12:07 AM 32.0 °F 26.4 °F 26.6 °F 80% 30.07 in 1.8 mi NNW 5.8 mph - 0.00 in Snow Light Snow
12:21 AM 32.0 °F 25.6 °F 26.6 °F 80% 30.07 in 2.0 mi NNW 6.9 mph - 0.00 in Snow Light Snow
12:37 AM 32.0 °F 26.4 °F 26.6 °F 80% 30.07 in 3.0 mi North 5.8 mph - 0.00 in Snow Light Snow
12:53 AM 32.0 °F 27.5 °F 27.0 °F 82% 30.07 in 4.0 mi North 4.6 mph - 0.00 in Snow Light Snow
1:08 AM 32.0 °F 28.7 °F 26.6 °F 80% 30.06 in 3.0 mi North 3.5 mph - 0.00 in Snow Light Snow
1:16 AM 32.0 °F 28.7 °F 26.6 °F 80% 30.06 in 2.5 mi NNW 3.5 mph - 0.01 in Snow Light Snow
1:53 AM 32.0 °F 26.4 °F 27.0 °F 82% 30.07 in 3.0 mi North 5.8 mph - 0.01 in Snow Light Snow
2:02 AM 32.0 °F 26.4 °F 26.6 °F 80% 30.06 in 2.5 mi North 5.8 mph - 0.00 in Snow Light Snow
2:23 AM 32.0 °F 25.6 °F 26.6 °F 80% 30.05 in 1.8 mi Variable 6.9 mph - 0.00 in Snow Light Snow
2:48 AM 30.2 °F 24.3 °F 26.6 °F 86% 30.04 in 2.0 mi Variable 5.8 mph - 0.01 in Snow Light Snow
2:53 AM 30.9 °F 25.2 °F 27.0 °F 85% 30.05 in 1.8 mi Variable 5.8 mph - 0.01 in Snow Light Snow
3:05 AM 30.2 °F 24.3 °F 26.6 °F 86% 30.04 in 1.2 mi NNW 5.8 mph - 0.00 in Snow Light Snow
3:25 AM 30.2 °F 26.7 °F 26.6 °F 86% 30.03 in 1.8 mi NNE 3.5 mph - 0.01 in Snow Light Snow
3:43 AM 30.2 °F 22.6 °F 26.6 °F 86% 30.03 in 2.0 mi North 8.1 mph - 0.01 in Snow Light Snow
3:53 AM 30.9 °F 24.3 °F 26.1 °F 82% 30.05 in 2.5 mi North 6.9 mph - 0.01 in Snow Light Snow
4:08 AM 30.2 °F 21.3 °F 26.6 °F 86% 30.03 in 1.8 mi North 10.4 mph - 0.01 in Snow Light Snow
4:17 AM 30.2 °F 23.4 °F 26.6 °F 86% 30.03 in 2.0 mi North 6.9 mph - 0.01 in Snow Light Snow
4:25 AM 30.2 °F 26.7 °F 26.6 °F 86% 30.03 in 1.8 mi Variable 3.5 mph - 0.01 in Snow Light Snow
4:36 AM 30.2 °F 22.6 °F 26.6 °F 86% 30.03 in 2.0 mi NNW 8.1 mph - 0.01 in Snow Light Snow
4:49 AM 30.2 °F 24.3 °F 24.8 °F 80% 30.03 in 1.8 mi Variable 5.8 mph - 0.01 in Snow Light Snow
4:53 AM 30.9 °F 22.8 °F 25.0 °F 79% 30.04 in 1.8 mi NNW 9.2 mph - 0.01 in Snow Light Snow
5:03 AM 30.2 °F 24.3 °F 24.8 °F 80% 30.03 in 2.0 mi North 5.8 mph - 0.00 in Snow Light Snow
5:17 AM 30.2 °F 24.3 °F 26.6 °F 86% 30.03 in 1.5 mi NNW 5.8 mph - 0.01 in Snow Light Snow
5:53 AM 30.0 °F 25.2 °F 26.1 °F 85% 30.05 in 1.2 mi Variable 4.6 mph - 0.01 in Snow Light Snow
6:04 AM 30.2 °F 25.4 °F 26.6 °F 86% 30.03 in 1.0 mi Variable 4.6 mph - 0.01 in Snow Light Snow
6:15 AM 30.2 °F 22.6 °F 24.8 °F 80% 30.04 in 1.8 mi North 8.1 mph - 0.01 in Snow Light Snow
6:25 AM 30.2 °F 24.3 °F 24.8 °F 80% 30.04 in 2.0 mi Variable 5.8 mph - 0.01 in Snow Light Snow
6:35 AM 30.2 °F 22.6 °F 24.8 °F 80% 30.04 in 1.5 mi NNW 8.1 mph - 0.02 in Snow Light Snow
6:43 AM 30.2 °F 25.4 °F 24.8 °F 80% 30.04 in 1.2 mi Variable 4.6 mph - 0.02 in Snow Light Snow
6:53 AM 30.0 °F 25.2 °F 25.0 °F 82% 30.06 in 1.2 mi Variable 4.6 mph - 0.02 in Snow Light Snow
7:00 AM 30.2 °F 24.3 °F 24.8 °F 80% 30.04 in 2.0 mi NNW 5.8 mph - 0.00 in Snow Light Snow
7:10 AM 30.2 °F 22.6 °F 24.8 °F 80% 30.04 in 4.0 mi North 8.1 mph - 0.00 in   Haze
7:53 AM 30.9 °F 24.3 °F 24.1 °F 76% 30.06 in 4.0 mi NNW 6.9 mph 17.3 mph 0.00 in   Overcast
8:35 AM 30.2 °F 25.4 °F 24.8 °F 80% 30.05 in 2.5 mi Variable 4.6 mph - 0.00 in Snow Light Snow
8:53 AM 30.9 °F 24.3 °F 25.0 °F 79% 30.06 in 2.0 mi Variable 6.9 mph - 0.00 in Snow Light Snow
9:35 AM 32.0 °F 26.4 °F 24.8 °F 75% 30.06 in 2.0 mi North 5.8 mph - 0.00 in Snow Light Snow
9:43 AM 32.0 °F 25.6 °F 24.8 °F 75% 30.06 in 1.5 mi Variable 6.9 mph - 0.00 in Snow Light Snow
9:53 AM 32.0 °F 25.6 °F 25.0 °F 75% 30.08 in 1.5 mi Variable 6.9 mph - 0.00 in Snow Light Snow
10:03 AM 30.2 °F 24.3 °F 24.8 °F 80% 30.06 in 1.0 mi Variable 5.8 mph - 0.00 in Snow Light Snow
10:14 AM 30.2 °F 23.4 °F 26.6 °F 86% 30.07 in 0.8 mi North 6.9 mph - 0.00 in Snow Light Snow
10:31 AM 32.0 °F 26.4 °F 26.6 °F 80% 30.07 in 1.0 mi North 5.8 mph - 0.01 in Snow Light Snow
10:53 AM 32.0 °F 26.4 °F 26.1 °F 79% 30.08 in 1.2 mi North 5.8 mph 18.4 mph 0.01 in Snow Light Snow
11:07 AM 32.0 °F 25.6 °F 26.6 °F 80% 30.07 in 1.5 mi North 6.9 mph - 0.00 in Snow Light Snow
11:30 AM 33.8 °F 27.0 °F 26.6 °F 75% 30.07 in 1.2 mi North 8.1 mph 18.4 mph 0.00 in Snow Light Snow
11:53 AM 33.1 °F 26.1 °F 27.0 °F 78% 30.09 in 1.2 mi North 8.1 mph 16.1 mph 0.00 in Snow Light Snow
12:13 PM 33.8 °F 28.6 °F 28.4 °F 81% 30.07 in 2.0 mi Variable 5.8 mph 18.4 mph 0.00 in Snow Light Snow
12:43 PM 35.6 °F 29.9 °F 28.4 °F 75% 30.06 in 3.0 mi Variable 6.9 mph 16.1 mph 0.00 in Snow Light Snow
12:53 PM 36.0 °F 31.1 °F 28.0 °F 73% 30.07 in 3.0 mi North 5.8 mph - 0.00 in Snow Light Snow
1:04 PM 35.6 °F 29.2 °F 28.4 °F 75% 30.05 in 2.0 mi North 8.1 mph - 0.00 in Snow Light Snow
1:20 PM 35.6 °F 29.2 °F 28.4 °F 75% 30.05 in 4.0 mi North 8.1 mph - 0.00 in Snow Light Snow
1:53 PM 37.0 °F 31.0 °F 28.9 °F 73% 30.07 in 10.0 mi North 8.1 mph - 0.00 in   Overcast
2:30 PM 39.2 °F 33.0 °F 30.2 °F 70% 30.05 in 10.0 mi NNW 9.2 mph 19.6 mph 0.00 in Rain Light Rain
2:53 PM 43.0 °F 37.2 °F 30.0 °F 60% 30.07 in 10.0 mi North 10.4 mph 18.4 mph 0.00 in   Overcast
3:53 PM 43.0 °F 36.4 °F 30.0 °F 60% 30.09 in 10.0 mi North 12.7 mph 19.6 mph N/A   Overcast
4:53 PM 44.1 °F 38.1 °F 28.9 °F 55% 30.11 in 10.0 mi NNW 11.5 mph 19.6 mph 0.01 in   Mostly Cloudy
5:53 PM 42.1 °F 35.7 °F 27.0 °F 55% 30.15 in 10.0 mi North 11.5 mph 18.4 mph N/A   Clear
6:53 PM 39.9 °F 35.8 °F 26.1 °F 58% 30.19 in 10.0 mi Variable 5.8 mph - N/A   Partly Cloudy
7:53 PM 39.9 °F 33.9 °F 24.1 °F 53% 30.21 in 10.0 mi North 9.2 mph 17.3 mph N/A   Clear
8:53 PM 39.0 °F 35.7 °F 24.1 °F 55% 30.22 in 10.0 mi North 4.6 mph - N/A   Clear
9:53 PM 37.0 °F 33.3 °F 23.0 °F 57% 30.23 in 10.0 mi Variable 4.6 mph - N/A   Clear
10:53 PM 36.0 °F - 21.9 °F 57% 30.24 in 10.0 mi Calm Calm - N/A   Clear
11:53 PM 35.1 °F 32.2 °F 21.9 °F 59% 30.24 in 10.0 mi North 3.5 mph - N/A   Clear